User: anonymous   Login
Location: Dover
(39.1580°N, 75.5250°W)
Time: 10:09:41
(UTC-04:00)
Language:

SeaSat 1 - Orbit

View from above orbital plane
View from above orbital plane
View from above satellite
View from above satellite

Ground track
Ground track

The orbit data is extracted from the following two-line orbital elements,

1 10967U 78064A   15210.24019983 -.00000004  00000-0  39332-4 0  9992
2 10967 107.9935 300.4738 0002007 288.6941 071.3985 14.43417616947180
Epoch (UTC): 29 July 2015 05:45:53
Eccentricity: 0.0002007
inclination: 107.9935°
perigee height: 746 km
apogee height: 748 km
right ascension of ascending node: 300.4738°
argument of perigee: 288.6941°
revolutions per day: 14.43417616
mean anomaly at epoch: 71.3985°
orbit number at epoch: 94718

The dashed part of the orbit path shows where the satellite is in the earth's shadow,  

DLR